Theta_e
332 333 332 329 327 328 326 327 328 329 328 328 329 327 327 327 325 326 326 327 327 327 328 328 329 330 331 331 330 330 330 330 331 331 331 332 337 342 341 341 340 339 337 335 334 334 335 335 334 334 334 333 333 332 332 332 331 331 331 330 329 329 329 329 327 326 327 326 326 326 326 327 327 327 327 327 326 326 326 326 326 327 326 325 325
331 331 331 328 327 327 326 326 328 328 327 328 328 328 328 326 325 326 326 326 327 329 328 329 330 330 331 331 331 331 330 331 331 331 332 333 336 342 341 339 338 339 339 334 334 335 336 337 335 335 334 333 333 333 333 333 332 332 331 330 329 329 329 329 329 328 327 327 326 326 326 326 326 326 326 326 326 326 326 325 325 325 326 325 324
329 328 327 326 325 327 327 326 327 328 327 328 328 328 328 327 326 326 326 326 327 328 328 329 329 330 331 331 330 331 331 331 332 332 332 332 334 337 341 340 339 338 337 337 336 334 336 337 336 335 335 335 334 335 334 333 333 333 332 331 330 329 329 328 328 328 327 327 327 327 326 325 325 326 326 326 326 325 325 325 325 325 325 325 324
328 326 326 326 326 327 326 327 328 329 329 329 330 330 330 329 328 327 327 327 327 327 328 328 328 329 330 330 330 330 331 332 331 331 332 332 332 334 336 339 341 340 338 336 335 338 338 338 337 336 336 336 336 334 334 334 333 333 332 331 331 330 330 329 328 328 328 328 327 327 327 326 325 325 326 326 325 325 325 325 325 325 325 324 324
327 328 330 325 326 325 325 326 328 330 331 332 330 329 327 326 326 327 326 326 326 326 327 327 327 327 329 329 330 331 331 332 330 331 331 331 331 332 333 335 337 338 339 340 339 339 338 335 337 337 337 334 334 336 336 335 334 334 333 332 331 331 330 330 329 328 328 327 327 327 327 326 325 325 325 324 324 324 324 324 323 324 324 324 324
328 327 327 325 325 324 325 327 329 331 331 330 326 325 325 325 326 327 328 326 325 325 326 325 326 326 327 328 329 330 330 329 330 329 330 330 330 331 331 332 332 334 336 340 339 338 337 337 336 335 334 335 336 337 336 336 336 335 334 333 332 332 332 331 330 329 328 328 327 327 327 327 326 325 324 324 323 323 323 324 324 323 323 323 323
328 328 326 325 324 323 325 329 331 332 331 328 326 325 325 324 325 324 324 325 325 326 324 324 325 326 326 327 328 328 328 328 329 329 329 328 330 330 331 331 331 332 332 334 336 335 335 335 335 336 336 336 336 336 336 336 336 335 335 334 334 333 333 332 331 331 330 328 329 328 329 328 327 326 325 323 323 324 324 324 323 323 323 323 323
328 327 326 325 324 324 326 328 332 332 329 327 326 324 323 323 324 325 324 323 324 323 324 324 325 325 326 326 326 327 326 326 328 328 327 328 327 328 330 332 333 334 333 331 333 334 333 334 332 332 331 332 333 334 336 336 336 335 335 333 332 332 333 333 333 333 331 330 329 329 329 329 328 328 326 325 325 324 323 323 323 323 323 323 323
328 327 327 325 324 325 325 329 332 331 328 326 324 324 323 323 322 324 324 323 323 323 324 324 324 324 324 324 325 326 325 326 326 326 327 326 327 328 330 332 334 333 330 330 330 330 332 334 334 333 332 332 332 334 335 337 336 335 334 332 334 332 331 334 335 334 334 332 332 331 330 330 328 329 328 327 325 324 324 324 323 322 322 323 322
327 327 326 326 325 326 326 329 330 329 326 326 324 323 323 323 321 322 323 324 323 323 323 323 324 323 323 323 323 323 324 326 328 329 325 325 326 327 327 328 329 329 329 330 330 330 331 330 330 331 332 332 333 334 334 335 336 335 333 335 335 334 334 332 335 335 335 334 333 333 332 331 330 330 330 328 327 326 326 325 324 324 323 322 322
328 328 327 328 326 325 325 326 329 327 326 326 324 324 323 322 322 322 323 324 324 324 324 324 323 323 323 323 323 323 324 326 324 324 326 328 331 329 326 326 327 327 328 330 331 331 329 326 324 325 327 328 329 330 332 334 336 334 334 335 335 335 334 335 335 334 335 334 334 334 331 332 331 330 330 330 329 328 328 327 325 325 324 324 322
327 328 329 328 326 325 325 326 328 327 326 325 324 323 322 322 322 323 323 324 324 324 324 324 322 323 323 323 323 324 324 324 324 324 325 327 326 326 327 326 325 325 327 329 329 328 326 324 323 322 321 323 324 325 326 329 331 335 334 335 335 335 334 333 334 334 335 334 333 333 332 332 332 330 331 332 331 330 330 328 327 326 326 325 324
329 328 328 330 326 324 325 326 326 328 327 326 325 323 322 323 323 323 324 323 323 323 323 324 321 319 320 319 321 324 327 325 323 324 324 325 327 326 327 326 326 326 327 329 328 325 323 322 322 321 320 319 318 320 323 324 328 331 335 335 336 335 333 334 334 334 334 333 333 333 332 331 331 331 330 330 332 332 331 330 329 328 327 327 326
330 328 329 328 325 325 325 326 327 326 327 327 326 326 323 322 322 321 320 323 321 322 322 319 316 317 317 315 318 320 322 321 320 321 324 324 324 325 326 326 327 328 328 329 325 324 323 322 320 318 317 317 316 317 319 321 325 328 331 334 335 335 335 333 335 334 334 334 334 334 333 331 329 330 331 331 331 331 332 332 331 330 329 328 327
329 329 328 326 325 325 325 325 325 326 327 327 325 322 322 322 322 322 320 321 322 322 321 319 317 316 316 315 310 313 317 317 316 317 322 323 325 326 326 327 327 328 328 326 324 323 321 318 318 317 316 315 315 315 316 319 324 325 328 330 335 334 334 336 335 335 333 333 333 334 332 332 332 331 331 331 330 331 331 330 330 330 330 330 329
329 328 327 325 325 324 324 325 326 328 328 327 325 322 321 321 320 322 323 321 319 321 322 321 319 319 314 312 311 311 310 311 311 313 317 323 324 325 326 326 328 328 327 325 324 320 316 316 315 314 314 314 314 314 315 317 320 322 325 327 330 334 335 336 335 336 336 335 333 333 331 331 332 332 332 331 331 330 330 329 329 328 329 330 330
330 328 328 325 324 324 324 325 327 328 329 327 325 323 322 322 322 322 323 323 317 318 322 323 320 321 316 311 310 310 307 312 310 312 314 318 322 325 326 326 326 326 326 325 321 316 315 313 313 312 312 312 312 313 314 315 317 320 320 323 325 330 333 333 333 334 333 330 330 330 328 328 328 327 327 327 328 329 330 330 331 331 331 331 331
330 329 327 326 324 324 324 324 326 328 328 327 326 324 321 321 322 323 321 322 322 319 320 321 321 320 318 317 316 311 311 312 309 308 315 314 318 322 323 324 326 326 326 323 317 315 314 311 311 310 310 309 309 309 311 314 318 318 319 320 320 321 323 329 331 331 330 328 327 327 326 325 325 324 324 324 325 326 326 326 327 328 330 331 331
329 328 326 326 324 325 324 324 326 327 328 326 325 324 323 322 322 322 322 321 321 320 320 319 320 321 320 320 321 316 317 312 307 309 310 313 314 316 319 323 325 326 324 319 316 313 312 311 310 309 309 309 308 308 308 309 312 315 318 318 318 316 317 318 326 329 329 328 328 326 325 324 322 321 321 321 321 322 324 325 325 326 327 328 330
327 326 325 326 325 324 323 324 325 327 327 325 325 324 323 324 323 321 320 322 322 322 320 320 321 320 319 318 317 316 314 312 313 314 312 310 311 317 319 321 322 322 321 317 313 311 310 310 308 307 308 307 307 307 307 307 308 310 313 315 316 316 315 314 314 315 323 325 324 323 322 321 320 319 318 318 319 319 320 321 322 322 323 325 327
324 324 325 325 327 324 324 324 325 327 328 325 324 324 324 323 322 320 320 320 321 321 321 321 320 319 317 315 315 313 312 312 311 311 311 311 310 312 314 319 320 318 315 313 311 311 311 312 311 308 309 307 306 306 307 307 309 309 312 314 313 314 313 311 309 310 312 321 320 320 320 319 319 318 317 317 317 317 317 318 319 320 320 321 323
322 324 325 325 325 325 324 324 326 328 328 325 324 323 323 323 322 321 320 319 319 321 321 321 321 319 319 316 313 312 312 312 311 311 311 311 311 311 314 315 314 314 313 311 309 308 307 307 306 305 305 306 306 307 308 310 310 309 311 312 313 311 311 308 305 310 314 317 319 319 319 319 319 318 317 317 316 315 315 316 317 318 320 319 320
320 322 324 324 323 325 324 324 325 328 327 325 325 324 323 323 322 321 320 320 319 320 320 320 320 319 318 318 315 314 313 311 310 312 310 309 311 311 313 315 314 313 311 309 309 306 305 305 305 304 306 306 306 307 309 311 312 311 311 311 311 311 309 305 304 305 310 317 319 318 318 318 318 317 316 316 316 316 315 315 315 316 317 319 319
315 317 318 321 324 323 323 323 325 326 325 325 325 324 323 322 321 321 320 319 319 320 319 319 319 320 318 318 317 315 313 313 312 313 313 313 314 311 312 312 311 306 307 309 307 307 307 306 306 305 305 306 306 310 310 308 312 312 311 311 311 309 310 308 303 302 302 309 315 318 317 317 316 316 317 316 316 315 314 314 314 313 313 316 319
314 316 315 317 319 318 319 320 322 323 323 322 323 323 322 322 321 320 319 319 320 319 319 319 320 320 320 317 315 314 313 313 313 312 312 313 313 311 308 309 308 306 307 305 307 307 307 306 307 306 305 306 307 307 309 309 310 311 308 310 309 307 307 310 308 303 301 302 306 312 316 316 316 315 315 314 314 313 312 310 308 307 307 308 311
315 316 315 316 316 318 318 317 318 320 321 320 321 322 322 322 321 320 319 319 319 319 319 319 319 319 319 317 316 315 314 313 312 312 311 312 312 312 309 304 306 305 300 303 303 305 306 308 307 307 306 306 306 307 308 307 310 312 310 307 309 306 306 307 308 307 304 302 302 306 309 310 311 311 311 310 309 308 307 306 306 306 304 305 307
316 316 317 315 314 315 316 316 317 318 320 320 321 321 321 322 321 320 319 318 319 318 318 318 318 317 318 318 316 315 314 312 312 312 313 314 314 312 310 307 303 303 301 299 301 303 305 307 307 307 307 309 307 306 307 307 309 311 309 307 308 307 305 307 309 308 306 303 302 301 302 303 304 306 306 306 306 306 308 307 306 305 306 306 307
314 316 315 315 315 316 316 315 316 317 318 318 319 320 321 321 320 320 319 319 318 318 317 318 318 317 318 316 317 316 315 312 312 312 312 314 314 313 313 311 307 302 299 303 302 302 303 307 307 307 307 308 308 307 308 308 308 311 311 306 307 308 305 304 306 307 304 303 301 300 300 300 301 303 306 307 307 308 307 306 306 305 304 306 307
316 315 314 312 313 315 315 314 315 315 316 317 318 319 319 320 318 317 316 317 318 318 315 318 318 317 316 317 319 316 315 313 311 312 312 312 313 314 314 312 310 304 299 301 303 301 305 303 306 308 308 308 309 308 308 308 307 310 310 306 306 307 307 305 303 303 303 302 301 302 299 300 301 302 307 307 306 305 305 304 304 304 305 306 307
316 315 314 314 316 319 314 313 312 313 314 315 316 315 316 315 314 314 313 314 314 312 314 316 314 315 315 315 316 316 315 314 311 311 311 311 310 312 312 311 309 306 302 302 303 301 305 304 304 307 306 308 308 309 308 308 308 309 309 305 305 304 304 304 303 301 301 302 301 300 299 300 301 303 305 306 307 306 304 304 302 302 305 306 305
316 314 313 312 312 312 312 311 311 311 311 312 312 312 312 311 311 310 310 310 310 309 310 311 310 313 312 313 312 315 314 315 311 311 311 310 310 309 308 308 307 308 305 304 303 304 305 308 306 304 307 308 308 310 309 309 308 310 309 307 304 304 306 306 304 303 302 302 300 300 304 305 302 303 303 305 306 305 305 306 304 303 305 304 304
313 313 312 311 312 312 311 310 310 309 310 310 310 310 310 310 310 310 309 309 309 309 309 309 310 309 310 311 310 311 312 314 311 310 309 309 309 307 307 306 304 305 306 304 304 305 304 308 308 305 304 307 308 309 309 308 308 309 309 307 307 307 307 307 303 303 303 302 301 301 304 303 301 303 304 303 303 302 303 302 301 303 305 302 302
312 312 311 310 310 311 310 311 310 309 309 308 309 309 309 308 308 309 308 309 308 308 310 309 309 308 309 308 308 308 311 314 311 309 309 308 308 308 307 305 303 304 304 304 303 302 304 304 305 304 304 307 306 308 308 309 308 308 308 308 309 309 308 307 305 301 301 302 301 300 300 300 299 302 301 298 299 299 301 301 302 302 301 300 300
311 310 309 309 308 309 309 308 308 307 307 307 307 309 309 309 309 309 308 308 308 307 308 309 308 308 308 308 307 308 310 313 311 308 308 308 307 306 306 305 303 303 305 304 302 304 304 305 307 304 303 306 306 305 309 307 307 304 306 308 307 308 307 307 305 303 300 301 300 300 300 300 300 300 299 299 299 299 300 300 299 298 299 298 297
309 309 308 307 307 308 307 307 306 306 306 306 307 308 308 309 309 308 308 308 308 308 309 308 307 307 307 307 306 307 309 311 310 309 309 308 308 307 307 305 304 303 303 304 304 303 303 304 306 304 304 304 307 304 305 306 305 302 301 303 304 306 307 305 303 302 300 299 299 300 300 300 300 299 299 299 299 298 298 299 299 298 298 298 297
309 308 307 307 306 307 307 306 305 305 305 306 306 306 307 308 309 308 307 307 307 307 308 307 306 307 307 307 307 307 309 310 309 308 308 309 309 308 307 306 305 303 304 305 306 304 303 304 304 303 302 304 304 302 301 303 304 303 303 304 303 305 305 303 302 303 302 300 300 300 301 301 299 299 298 298 299 299 298 298 299 299 298 299 298
307 307 307 306 306 306 307 306 305 305 305 306 306 306 306 306 307 308 307 307 307 306 306 306 310 307 308 308 307 307 307 308 307 308 308 308 308 308 308 306 305 304 305 306 305 305 305 304 305 303 303 303 303 304 303 302 303 305 305 306 305 304 305 305 303 303 302 301 301 301 299 299 299 299 298 298 298 298 298 298 299 299 299 299 298
306 306 306 307 307 305 305 305 305 305 305 305 305 305 306 306 306 306 307 308 307 307 306 306 307 306 308 307 307 307 307 308 308 307 307 308 307 308 307 306 305 305 306 305 306 306 305 304 305 304 304 304 304 306 305 304 305 305 305 304 305 304 305 305 305 305 305 304 304 303 301 300 300 299 299 299 298 298 298 298 298 299 299 298 298
307 306 305 305 307 305 304 304 305 305 305 305 305 305 305 306 306 307 307 306 306 307 307 307 307 306 307 307 308 308 308 308 308 308 307 307 308 307 307 307 306 306 306 305 305 304 304 304 303 304 305 304 305 305 304 303 305 306 307 305 305 303 304 305 303 303 304 303 300 298 299 300 300 300 298 298 298 299 298 298 298 298 298 297 297
307 307 306 306 306 305 304 305 305 306 305 305 304 305 305 306 306 306 306 307 306 306 306 306 307 307 306 307 308 308 308 308 309 308 309 308 308 307 307 308 307 307 306 306 305 304 304 304 304 303 303 304 305 305 303 303 305 304 305 305 304 303 303 302 304 304 303 303 301 301 300 299 299 298 297 298 298 298 298 299 299 299 298 296 296
309 308 307 306 306 306 305 304 304 305 306 305 305 305 306 306 305 306 306 307 307 307 306 306 306 306 306 306 307 307 311 311 308 308 308 309 309 308 307 308 307 307 306 306 306 305 304 304 303 304 304 304 303 305 304 303 303 304 306 303 304 303 302 302 301 302 301 301 300 300 300 301 299 300 299 300 300 299 298 298 299 298 297 296 296
308 308 307 307 307 307 306 305 304 305 305 305 309 305 305 307 305 306 306 306 306 307 308 307 306 307 307 307 310 314 313 312 308 303 302 303 307 310 310 308 308 307 307 306 305 305 305 304 304 304 304 303 304 304 304 304 303 303 303 304 302 300 301 301 301 302 301 301 301 300 299 300 299 298 298 298 298 299 299 300 299 298 297 296 296
307 308 307 307 306 306 307 306 305 305 306 307 303 299 299 302 305 306 307 306 306 307 307 307 308 308 307 308 308 311 314 313 311 302 300 300 300 303 303 305 307 309 307 306 306 305 306 306 305 303 305 305 305 304 304 304 301 304 305 304 302 300 301 300 299 300 301 300 299 299 298 299 298 297 297 297 298 299 298 299 296 296 296 295 296
310 308 307 306 305 305 305 304 303 304 305 303 298 298 297 297 301 306 305 306 307 307 307 307 307 307 308 308 308 309 311 311 311 309 304 300 299 300 299 299 300 301 302 308 307 304 305 305 304 305 305 306 306 303 302 301 301 301 301 302 301 301 300 300 299 299 299 299 299 298 297 298 297 298 298 297 298 298 298 297 295 295 295 295 295
308 309 309 309 309 307 305 305 305 305 306 299 297 297 298 297 297 300 305 306 306 307 307 307 308 308 308 308 309 309 310 313 314 308 308 307 299 298 298 299 298 298 297 298 301 309 308 308 307 306 305 306 304 304 305 304 303 303 300 300 300 300 300 300 298 298 297 298 299 297 296 296 296 297 296 297 298 298 298 296 295 295 295 295 295
303 303 304 305 307 308 308 307 307 307 307 298 294 294 294 294 294 297 304 306 307 307 308 308 308 308 308 309 309 310 309 311 312 308 307 307 305 303 304 305 307 302 296 295 296 295 303 309 309 308 308 306 308 308 306 303 304 303 301 302 299 299 298 299 297 296 296 296 299 297 295 295 295 296 296 297 297 298 298 297 294 295 295 295 295
299 300 300 300 302 304 305 306 306 307 304 294 294 294 294 294 294 297 302 303 304 306 307 308 309 309 310 310 310 310 310 310 311 308 308 307 306 306 305 304 303 302 302 302 301 302 303 306 308 309 310 307 309 308 305 303 306 305 304 303 300 299 296 295 295 296 296 295 295 298 295 295 293 295 296 297 296 296 297 295 294 294 295 295 294
297 297 298 298 299 300 302 303 304 303 301 293 293 294 294 294 297 304 303 303 304 304 305 307 308 309 310 310 310 311 311 311 306 299 302 309 307 307 307 305 302 300 299 295 293 294 298 300 303 305 306 306 302 306 303 303 301 298 297 296 296 296 296 296 294 294 295 295 294 296 294 294 292 294 296 296 295 296 297 297 294 294 295 294 294
295 295 296 296 297 298 299 300 300 300 300 295 293 293 294 294 299 305 305 305 305 305 305 307 308 309 310 310 311 311 311 311 305 300 297 301 308 308 307 306 305 302 300 297 293 292 292 293 294 294 295 295 296 295 294 294 297 298 298 297 295 296 296 294 293 293 294 294 295 295 295 293 293 293 294 295 295 294 296 296 297 294 293 294 293
294 295 295 295 295 296 296 297 299 298 298 296 293 293 293 293 298 303 304 304 305 305 306 307 307 308 309 308 311 312 311 312 302 300 296 301 308 308 308 306 303 302 301 296 296 295 292 291 291 291 291 292 293 293 293 293 293 297 299 297 296 295 295 295 294 293 293 293 295 295 295 293 292 291 292 293 292 292 294 295 295 296 294 293 293
294 294 295 293 293 294 295 296 298 296 297 297 293 292 292 293 297 301 303 303 303 304 305 306 307 308 308 307 306 306 309 308 300 299 296 301 308 308 307 306 304 303 303 296 297 296 294 296 295 296 295 295 297 297 296 293 293 296 300 299 296 295 294 294 293 291 291 292 294 295 293 291 291 291 291 291 290 293 291 293 295 295 295 295 295
Wind_Speed
5 5 4 3 3 2 2 2 2 2 2 3 2 3 4 4 4 5 5 5 5 5 5 5 5 5 6 5 5 5 4 4 4 4 4 4 4 7 10 9 7 6 9 9 10 10 9 9 9 9 9 9 9 9 9 9 9 9 9 9 8 8 8 8 8 8 8 8 9 9 9 10 10 10 11 10 10 9 10 11 12 11 11 11 11
6 4 4 3 2 2 2 2 2 1 2 3 2 3 4 4 5 5 5 5 5 4 4 5 5 5 5 5 5 5 4 5 4 4 4 5 4 5 9 7 7 5 6 7 8 9 9 9 9 9 9 9 9 9 9 9 8 8 9 9 8 8 8 8 8 9 8 8 8 7 8 8 9 9 10 9 9 9 10 10 10 11 10 10 10
5 5 4 3 2 2 2 1 1 1 2 4 4 3 4 5 5 5 5 5 4 4 5 6 5 5 4 5 5 5 5 4 4 4 5 4 4 4 4 6 6 6 7 6 5 9 8 9 9 9 9 8 8 8 7 7 7 7 8 8 7 7 7 7 7 7 7 7 7 7 7 7 7 8 9 9 9 9 9 9 10 10 10 9 9
5 5 4 4 2 2 2 1 1 1 3 4 4 3 4 5 5 5 5 5 5 5 5 6 5 4 5 6 4 5 5 5 5 5 5 5 5 4 4 4 6 7 6 6 7 8 7 7 8 8 7 7 7 6 6 6 6 6 6 6 6 6 6 6 5 6 6 5 6 6 7 6 6 7 7 8 8 8 9 9 9 9 9 9 9
5 5 5 4 3 2 2 1 1 2 3 4 4 4 5 6 5 5 5 5 6 6 6 6 5 5 5 5 5 6 6 5 5 5 5 4 4 4 4 4 5 8 9 8 8 9 8 6 8 6 5 5 6 6 5 5 4 4 5 4 4 4 5 5 5 5 5 5 4 6 6 6 6 6 6 6 6 7 7 7 7 7 8 8 8
5 4 5 4 4 3 2 2 2 3 3 4 4 5 5 6 5 5 5 5 5 5 6 7 6 6 5 5 6 5 4 6 2 4 4 5 4 5 4 4 4 4 5 11 12 12 12 10 9 7 6 9 8 7 6 5 4 3 4 5 3 3 3 3 3 4 4 5 5 5 6 5 5 5 5 5 5 5 5 6 6 6 6 7 7
5 5 5 5 4 3 2 2 3 3 4 3 5 4 5 5 5 6 5 5 5 6 6 6 6 6 6 5 6 6 5 3 3 5 3 4 5 4 4 4 4 4 4 5 10 13 12 11 11 13 10 7 5 7 7 5 4 4 4 3 3 2 2 2 3 3 4 4 4 5 5 6 5 5 5 4 4 4 5 5 5 5 5 6 5
4 4 4 4 4 4 2 2 4 4 4 4 4 5 5 5 3 4 7 5 6 6 5 6 6 6 5 5 5 5 5 2 2 4 3 4 4 4 4 4 5 5 6 6 6 9 9 9 9 5 5 5 5 7 6 4 5 2 3 6 4 1 2 2 4 4 4 4 3 2 3 5 5 5 6 5 5 4 4 4 4 4 3 4 4
5 4 4 4 3 4 2 3 5 4 4 5 4 4 5 5 4 4 3 6 7 8 6 5 6 6 5 6 5 4 5 3 2 3 4 5 4 4 5 6 6 7 6 6 5 6 9 12 11 7 5 4 6 6 6 6 5 5 6 3 3 3 3 3 4 4 3 4 4 3 4 5 5 4 6 5 4 4 4 4 3 3 2 2 2
4 4 3 3 3 3 3 4 4 4 5 5 4 3 3 5 5 3 3 5 7 7 7 7 6 6 6 6 5 4 3 3 3 3 4 4 4 5 5 6 7 6 6 6 6 6 6 8 10 9 9 7 7 7 6 6 6 8 8 5 3 2 1 1 3 2 4 5 5 4 4 4 7 4 5 5 4 4 4 4 3 4 2 2 1
4 4 5 4 4 4 3 4 5 5 6 5 5 4 3 3 6 5 4 4 7 7 8 8 7 7 7 6 5 5 4 4 3 4 4 5 5 5 5 6 6 6 7 6 6 6 5 4 4 3 5 12 11 10 9 11 10 8 5 4 6 4 1 1 1 2 4 4 6 5 2 2 4 5 4 6 5 5 4 4 3 4 3 2 2
4 4 5 5 4 4 5 4 5 6 6 6 5 5 6 6 6 7 7 6 6 6 7 9 7 8 8 6 5 4 5 4 5 5 4 5 4 5 5 5 5 6 7 7 6 5 4 4 4 3 4 7 11 11 11 12 12 10 8 4 3 4 3 3 6 3 2 3 1 1 4 4 4 4 6 5 6 4 6 5 4 4 4 4 3
5 4 5 4 4 4 5 4 5 6 6 6 6 5 4 5 5 3 7 7 5 5 5 6 8 6 6 7 7 6 5 6 6 5 5 4 4 5 4 5 6 7 6 6 5 5 5 4 3 4 4 3 5 9 10 11 12 11 11 9 6 8 12 14 9 8 7 6 5 5 2 1 3 5 6 6 6 5 5 4 5 4 5 5 5
5 5 4 5 5 5 5 5 5 5 5 5 6 6 6 5 5 5 2 5 4 4 3 3 4 5 7 5 6 5 5 6 7 6 5 5 4 6 6 5 7 7 7 6 5 6 5 3 4 4 5 4 4 4 4 6 8 12 11 11 11 13 12 9 10 10 10 10 10 8 6 2 1 2 3 4 4 3 4 6 2 4 5 5 6
6 6 5 5 5 6 5 5 5 5 6 6 6 6 6 7 6 6 5 3 3 2 2 2 5 4 4 6 3 4 4 5 5 7 5 5 6 7 6 7 7 7 6 5 5 5 4 4 4 5 4 4 3 4 4 5 8 11 12 12 12 12 12 9 11 12 12 13 13 13 12 11 9 9 8 5 3 5 5 5 5 5 1 5 6
5 5 4 4 5 5 5 5 6 5 6 6 6 5 6 5 5 4 7 6 2 1 2 1 4 7 4 3 3 4 5 4 5 5 4 7 7 7 7 7 7 7 5 5 4 4 4 4 5 4 4 4 4 4 5 5 8 10 12 12 12 13 12 13 12 14 14 16 16 16 15 16 17 17 16 14 10 8 7 5 4 3 1 3 5
4 4 4 5 4 4 4 5 6 6 5 5 6 6 6 6 6 6 6 8 5 2 0 1 3 1 7 5 4 1 2 4 4 5 5 5 7 7 7 7 7 6 5 5 5 4 4 5 4 4 4 3 4 4 4 5 5 6 8 12 14 14 14 13 13 15 16 16 15 16 15 15 16 16 16 16 15 15 14 14 14 13 12 10 8
4 4 3 4 5 5 4 5 4 5 5 5 5 5 5 6 6 7 5 3 7 5 2 2 2 3 2 1 3 4 6 5 3 3 4 5 5 7 6 5 5 6 5 4 5 4 3 3 3 4 3 4 4 4 4 5 5 5 5 8 13 14 12 11 14 15 16 16 16 16 16 16 16 17 17 17 16 16 15 16 15 15 15 15 14
3 4 4 3 4 5 5 5 5 4 5 5 5 6 5 5 5 5 6 5 6 6 7 4 2 2 2 1 3 1 7 7 3 5 5 3 5 4 5 5 5 6 5 5 4 4 3 3 4 3 4 4 4 4 4 5 7 8 13 12 12 15 15 16 15 15 16 16 16 16 16 16 16 16 16 17 17 17 17 17 17 16 16 16 17
4 4 4 4 5 5 4 5 5 5 5 5 6 4 4 3 3 4 4 5 6 7 6 6 7 3 2 2 4 5 5 5 6 6 6 6 3 4 5 4 5 6 5 4 4 3 3 3 3 4 3 4 3 4 4 5 5 6 6 11 11 12 15 15 15 14 14 15 15 15 15 15 15 15 16 16 16 16 16 16 16 17 17 17 17
3 4 3 4 5 5 5 5 5 5 4 4 5 6 6 6 5 5 5 4 3 3 6 6 4 4 4 4 5 5 5 5 6 5 5 6 2 2 3 4 5 5 4 4 4 3 3 3 3 3 3 3 4 4 4 5 5 5 6 10 11 10 11 12 13 13 12 14 15 15 15 15 15 16 16 16 16 17 17 17 16 16 16 16 16
3 3 3 3 4 5 5 6 6 6 5 5 5 5 5 6 6 6 5 5 3 4 5 5 4 4 3 6 4 4 4 4 5 6 6 4 7 7 6 7 6 2 3 4 4 3 3 3 4 3 3 3 3 4 4 5 4 4 6 10 10 11 10 11 12 12 12 11 14 15 15 15 16 16 16 17 17 17 16 16 16 16 16 16 15
3 3 3 3 3 4 4 4 5 6 5 5 6 6 6 6 5 5 5 6 4 4 4 4 3 3 4 6 7 8 7 6 7 5 5 5 6 5 3 3 4 5 1 2 2 3 3 3 3 3 2 3 2 3 4 4 4 6 9 10 10 10 10 10 11 12 12 11 12 15 16 16 16 17 17 17 17 17 17 17 17 17 16 16 16
3 4 4 4 5 5 5 5 6 5 6 5 5 5 5 5 5 5 4 4 4 5 5 5 6 4 4 5 5 4 2 5 6 6 8 7 8 8 6 4 4 2 1 1 2 3 3 3 2 2 1 1 2 2 3 4 4 8 5 8 8 9 9 9 10 10 11 11 11 13 16 17 17 16 16 16 16 16 15 15 16 16 16 17 17
3 5 4 6 5 6 6 6 6 6 6 6 5 5 6 5 5 5 5 6 5 5 5 6 7 7 6 3 3 3 3 4 5 6 5 7 9 8 3 3 3 2 2 3 2 2 1 1 1 1 1 1 1 2 2 3 3 5 5 5 7 8 8 8 8 9 10 11 11 11 13 15 15 15 15 14 14 14 13 12 11 11 12 13 15
5 4 4 4 4 4 5 5 4 5 6 6 6 5 6 6 6 6 6 5 4 5 5 5 5 4 4 5 4 4 4 5 6 7 8 8 7 9 7 3 3 2 1 2 2 0 1 1 0 1 0 1 1 0 1 2 2 3 5 4 5 6 7 7 8 7 8 9 10 10 10 11 12 12 12 11 11 10 10 9 9 9 10 11 12
6 4 3 3 4 4 4 4 4 5 5 5 5 5 5 5 5 5 5 5 5 5 5 6 6 6 5 5 4 4 5 5 7 7 8 9 9 9 9 8 4 3 1 2 1 2 2 1 1 2 2 2 2 2 1 1 1 2 3 3 3 5 5 6 6 6 6 7 7 8 8 8 8 7 7 7 6 6 7 7 7 8 8 9 10
3 4 3 3 4 4 4 4 4 5 5 5 6 6 6 6 5 5 5 4 6 7 6 6 6 6 6 4 5 4 4 6 5 7 7 7 8 8 8 9 10 4 1 1 1 4 2 3 2 3 3 3 3 2 1 1 1 1 2 2 2 2 4 5 5 5 5 5 6 6 6 7 7 7 6 6 5 5 6 6 5 5 6 7 8
5 3 4 2 3 5 5 4 4 4 4 4 5 6 6 5 5 6 5 5 5 6 5 6 5 5 5 7 6 5 5 5 4 5 5 5 7 8 8 10 9 9 6 5 5 5 3 4 4 5 4 4 3 1 1 1 1 1 1 1 1 1 1 4 4 4 4 5 5 5 5 5 5 5 5 5 5 5 4 4 4 4 5 6 6
5 4 3 4 3 4 5 4 4 4 4 4 4 5 5 4 4 4 4 5 4 3 4 5 5 5 5 5 4 5 4 5 5 5 6 7 7 7 6 4 8 10 6 7 6 5 4 3 2 4 3 4 3 2 2 2 1 2 1 1 1 1 0 0 2 3 3 3 4 4 3 3 3 3 3 3 4 4 4 2 2 3 3 3 5
6 5 4 4 4 4 4 5 4 4 3 4 4 4 4 5 4 4 4 5 5 5 3 4 4 5 6 6 4 4 5 5 5 5 5 6 6 5 5 6 4 5 9 5 4 5 4 5 6 3 4 5 3 3 2 2 3 3 3 2 2 2 3 1 0 1 1 2 2 3 2 3 3 3 4 5 6 6 7 6 3 3 2 1 2
4 5 5 4 4 4 3 5 5 4 5 3 4 5 5 4 4 5 4 5 5 5 5 4 4 4 6 6 5 5 5 5 5 6 6 5 6 6 6 6 4 5 5 6 5 6 5 5 4 4 3 4 4 4 4 2 2 5 3 3 4 3 2 2 2 1 1 1 1 2 3 3 3 4 6 6 7 7 8 8 7 4 1 1 1
5 5 5 5 4 4 4 3 4 5 5 4 3 5 5 5 4 5 4 5 6 4 5 5 5 5 5 5 5 5 6 6 5 5 6 6 5 4 4 5 5 5 6 4 5 3 1 1 1 1 1 4 3 4 4 3 3 2 2 3 3 3 2 2 2 1 1 0 2 3 3 2 4 6 5 5 5 6 6 7 6 5 3 2 3
5 6 6 4 4 5 5 4 4 4 4 5 5 5 6 6 5 4 5 5 5 5 5 5 5 4 5 5 5 5 6 6 6 6 6 7 7 6 5 6 6 5 4 4 2 4 5 2 3 1 2 3 4 3 6 5 5 2 3 2 2 2 2 2 1 1 1 1 2 1 2 4 5 5 6 7 8 8 8 8 7 6 4 1 3
3 5 6 5 6 5 5 4 4 4 4 4 3 5 5 6 6 5 4 5 5 5 5 6 6 5 5 5 5 5 5 6 6 5 6 7 6 7 7 5 6 5 5 4 4 3 6 6 3 4 4 3 5 4 4 3 3 3 3 2 3 2 2 1 1 1 2 3 4 3 3 4 6 9 8 9 8 8 8 7 7 7 6 3 1
5 3 4 6 6 5 5 4 4 4 4 3 4 4 6 6 6 6 5 5 4 3 4 5 6 6 7 6 5 6 6 6 6 6 5 5 6 6 6 5 5 7 6 5 4 5 5 5 5 5 3 5 5 1 1 2 2 2 1 0 1 2 2 2 2 1 1 4 5 6 7 9 9 9 9 8 7 7 7 8 9 10 10 8 4
4 4 3 4 5 6 6 6 5 4 4 4 4 4 4 4 5 5 5 5 4 3 3 3 3 4 5 4 5 5 6 6 5 6 6 7 6 5 6 5 5 5 4 5 4 3 5 6 5 2 2 3 0 1 3 4 1 2 3 3 1 2 3 2 2 3 7 9 10 11 10 10 10 8 8 7 7 8 9 10 11 11 11 11 9
4 3 4 3 4 5 4 4 4 5 5 4 4 5 5 4 5 5 5 4 4 4 3 3 3 4 4 4 5 5 6 7 7 5 5 6 6 6 6 6 5 5 5 5 4 4 5 6 6 4 3 5 3 2 2 3 4 2 3 3 3 2 3 4 3 2 3 4 4 5 6 7 9 8 7 7 8 10 10 11 11 11 11 11 10
5 4 3 4 2 4 4 4 4 4 4 4 4 4 4 5 5 5 5 4 4 4 4 3 3 3 4 5 5 5 6 5 6 7 7 6 6 7 7 6 6 6 6 6 5 5 5 5 3 3 5 2 3 5 2 2 3 4 5 4 3 1 1 3 4 2 2 4 6 7 6 6 7 6 6 8 8 8 9 10 10 11 11 11 11
4 4 4 3 3 3 3 3 3 3 3 3 3 4 4 4 4 4 5 5 4 3 3 2 2 3 3 3 4 5 5 5 6 6 6 7 5 5 4 5 6 7 7 6 5 5 5 5 5 5 4 4 2 1 1 3 4 1 3 4 7 5 3 2 2 3 1 3 4 4 4 4 4 5 6 8 8 7 8 9 10 9 9 9 9
2 1 1 1 2 2 2 2 3 3 2 3 3 4 4 5 4 5 5 4 4 4 3 1 1 1 1 1 1 2 2 2 4 4 4 4 6 6 4 5 6 6 6 5 5 5 4 5 4 1 3 4 3 5 4 5 7 7 5 3 4 3 3 4 2 2 1 3 3 3 3 1 3 3 3 3 3 5 6 6 6 7 8 8 8
2 1 1 1 1 1 1 1 1 2 2 3 4 6 5 4 5 4 4 4 5 4 3 2 3 3 2 2 2 3 3 3 4 4 5 6 6 4 7 8 7 6 6 6 6 5 5 6 6 5 5 6 6 7 7 6 2 3 4 5 7 4 4 3 1 1 1 2 3 4 3 1 2 3 2 3 1 2 2 3 3 3 5 5 5
2 0 1 0 1 1 1 1 2 2 1 2 2 1 3 4 4 4 4 5 4 4 4 4 4 4 4 4 4 3 4 4 5 6 6 5 5 3 7 8 7 9 7 6 7 7 7 7 4 4 6 7 7 5 6 4 3 6 6 7 7 7 8 7 6 1 1 1 3 3 3 1 1 3 2 2 1 2 1 2 1 3 3 3 2
5 4 5 4 4 4 2 2 2 3 2 3 4 3 3 3 3 2 2 0 2 3 5 5 5 4 5 5 5 5 5 6 6 6 6 6 6 4 8 9 9 8 7 8 7 5 5 6 5 7 6 7 5 5 4 4 5 4 4 7 8 9 8 7 5 5 2 1 3 4 3 1 1 3 3 1 1 1 1 1 2 2 2 2 3
5 7 5 6 6 5 5 5 5 6 6 10 11 9 6 3 0 1 0 1 1 2 3 4 4 5 5 5 5 5 5 6 6 6 6 7 5 6 7 8 8 9 8 4 1 5 7 6 6 6 8 5 5 6 8 8 6 7 5 5 6 7 6 7 4 3 2 0 3 3 3 1 0 3 3 2 2 2 1 2 2 3 4 4 4
7 7 7 7 6 7 6 5 6 7 9 11 13 12 11 9 4 1 3 2 2 3 4 4 4 5 5 5 6 6 6 6 6 6 7 7 6 6 6 6 6 4 1 2 3 1 5 6 6 7 7 6 7 7 7 7 9 7 8 7 6 7 6 5 3 4 2 1 4 4 2 2 1 1 2 1 1 2 3 3 4 4 5 5 4
8 8 8 8 7 7 7 7 8 9 9 12 13 13 12 10 8 4 3 1 2 4 4 4 4 5 5 4 4 6 5 6 7 8 7 7 6 6 6 6 5 4 4 4 2 1 1 1 3 5 4 6 7 4 5 7 8 7 7 7 9 6 6 4 4 2 2 2 1 2 3 2 1 0 2 1 1 2 3 4 5 6 6 7 5
7 7 8 8 9 9 8 7 9 9 9 14 14 14 14 12 9 6 5 5 4 3 4 4 4 4 4 4 5 5 6 5 7 8 7 2 6 7 7 5 5 4 2 3 2 3 2 2 2 4 5 5 6 6 8 8 5 7 8 7 7 7 7 5 3 1 1 1 1 2 3 2 1 1 1 1 0 3 2 2 4 6 6 6 6
8 9 7 7 7 8 9 9 8 8 8 11 14 14 14 14 9 6 6 5 5 5 5 5 4 4 4 4 5 5 6 7 7 4 4 2 4 6 6 7 6 4 3 3 4 3 6 7 5 5 7 8 7 6 9 11 10 9 10 8 6 6 7 5 2 2 3 1 1 1 3 1 1 1 2 2 1 2 2 2 2 3 5 6 6
8 8 6 7 7 8 8 8 7 7 7 10 13 13 14 13 9 7 6 5 6 5 6 6 4 4 5 6 6 6 7 9 9 8 11 9 7 6 6 6 4 4 2 3 1 4 4 6 8 8 5 4 7 9 11 12 13 10 10 9 7 6 5 4 5 3 1 1 1 1 2 2 1 1 1 2 2 2 2 2 2 3 4 4 6
7 6 6 7 7 7 7 7 9 9 7 8 12 12 13 12 9 6 6 5 6 7 6 8 7 5 6 5 6 7 7 9 10 9 10 10 8 9 9 7 7 7 7 9 8 6 2 3 4 6 5 5 4 4 5 9 9 3 2 7 9 9 8 6 5 4 1 3 3 3 2 2 3 2 2 2 2 2 1 1 1 2 2 2 3
Wind_Direction
120 120 107 94 87 69 79 85 95 82 82 67 69 75 67 62 81 87 85 86 83 88 88 84 98 102 112 97 93 94 85 72 69 68 59 57 67 99 108 113 104 102 102 106 105 100 104 110 110 106 103 98 95 95 94 95 92 90 87 84 85 82 77 75 77 73 68 66 66 63 63 63 63 60 60 63 61 55 53 57 60 59 54 50 51
130 122 123 104 87 84 62 64 84 72 89 75 57 60 67 68 79 84 91 88 84 86 85 84 82 85 97 107 101 93 81 79 68 67 57 49 58 97 111 105 107 104 83 97 108 104 107 114 113 111 108 104 100 97 94 95 96 97 94 91 86 84 79 74 75 75 74 69 68 69 68 63 61 63 64 66 65 58 51 50 53 60 60 49 48
127 126 103 114 112 110 84 42 64 52 73 73 63 67 66 74 100 108 107 107 98 80 85 91 92 89 93 97 93 84 83 77 72 62 58 51 53 55 80 83 71 79 90 57 53 116 112 118 111 107 107 105 104 101 103 100 97 97 97 98 99 92 89 88 83 86 82 83 81 73 68 64 67 63 59 59 60 59 58 55 51 54 56 52 47
126 125 128 124 127 120 110 103 101 55 75 73 76 74 82 89 95 101 105 107 101 82 78 97 88 89 89 84 80 84 84 82 76 65 65 58 60 56 56 59 85 94 86 68 50 85 116 121 121 112 105 112 112 110 110 105 94 92 96 96 98 104 105 96 91 87 89 86 86 88 85 86 78 77 72 62 58 59 56 54 51 52 58 56 51
131 139 140 135 130 129 117 121 127 97 91 100 98 93 96 98 90 92 86 81 89 85 83 77 93 78 79 84 88 86 74 62 74 77 72 64 56 62 47 56 63 71 66 61 47 41 41 91 116 111 108 100 101 110 110 110 108 103 109 109 100 104 100 102 102 103 108 104 98 92 96 93 95 94 91 88 78 68 65 60 58 56 58 59 54
138 138 133 136 132 130 127 131 138 129 104 100 109 115 106 108 115 101 100 95 100 92 101 94 80 77 73 73 71 63 72 94 35 63 70 77 69 62 59 56 56 55 53 62 65 64 60 47 59 82 75 56 70 75 76 68 62 73 115 132 122 110 112 120 129 134 140 137 129 128 106 116 114 109 109 107 105 104 91 81 72 64 56 60 62
149 149 149 142 136 131 135 151 141 127 104 101 121 112 108 111 125 111 96 95 97 93 99 100 97 87 85 80 73 80 60 21 97 92 69 74 73 64 60 67 64 68 65 64 66 62 58 58 58 58 58 70 59 51 49 54 61 63 82 127 148 125 137 163 175 183 182 166 169 145 121 133 140 137 134 134 127 109 104 105 91 78 76 68 57
145 141 139 147 143 147 162 144 139 119 110 120 122 117 111 104 80 107 115 102 107 92 98 101 98 94 91 102 95 83 87 56 72 88 84 74 66 62 57 64 62 61 65 68 67 64 64 78 76 62 32 18 15 36 33 8 354 19 55 42 317 271 242 213 217 213 199 198 187 165 152 153 162 162 160 155 151 135 126 114 106 106 88 83 76
143 143 141 143 144 148 128 147 143 124 117 113 103 122 129 115 76 47 90 127 118 111 102 99 97 95 86 83 80 81 86 114 90 81 70 72 70 67 67 61 62 59 61 69 72 73 57 70 72 86 105 73 56 67 50 30 30 45 55 30 150 213 254 238 224 237 232 215 202 193 188 184 185 184 173 168 167 159 150 130 129 122 111 83 84
130 143 132 118 131 136 123 145 131 119 115 109 110 98 102 121 101 48 92 122 121 114 109 108 103 95 79 77 80 81 91 86 73 69 73 71 68 66 64 66 67 63 59 63 72 74 74 64 69 58 53 54 58 56 45 25 19 45 41 38 62 93 55 114 270 247 236 221 221 228 218 215 195 221 178 184 181 184 170 168 159 149 127 128 86
142 135 135 135 129 124 150 164 131 124 117 114 115 113 100 89 112 104 75 87 119 119 121 113 100 91 81 74 77 78 74 73 70 70 66 67 71 65 65 68 73 67 66 68 73 73 66 58 43 34 44 48 48 46 42 35 28 55 69 45 47 52 160 269 307 273 262 242 222 196 219 247 227 220 235 199 198 209 202 184 174 168 163 167 174
140 150 150 132 143 146 152 162 136 133 132 131 133 144 146 122 118 121 108 88 79 109 114 108 94 86 83 72 67 77 73 66 65 65 67 69 79 71 71 69 68 75 71 72 69 63 62 62 54 38 36 36 41 35 33 29 26 36 63 65 77 94 86 40 22 8 353 4 34 233 230 246 238 255 261 254 233 233 210 208 204 195 186 191 195
150 179 152 137 142 149 138 144 149 138 147 144 146 140 140 129 117 92 118 114 92 96 109 115 105 79 68 71 58 43 67 60 60 58 65 66 76 72 80 87 76 81 85 80 75 69 59 46 39 36 30 30 21 27 31 32 30 34 36 34 56 59 52 47 26 24 38 30 39 56 94 325 252 240 254 269 275 265 276 242 210 210 208 205 205
160 173 161 146 154 159 152 158 152 134 141 143 136 132 126 124 123 88 360 114 115 142 129 92 45 122 121 77 59 53 64 65 57 50 66 78 81 77 82 86 88 97 95 83 80 72 63 54 51 44 32 25 18 11 18 31 34 43 37 32 36 61 59 48 56 61 60 68 72 78 83 78 343 301 264 269 280 298 23 28 356 241 214 220 219
162 168 166 162 159 158 161 150 140 135 137 141 138 137 143 148 155 138 119 31 96 101 35 51 129 128 104 98 60 70 1 22 40 45 53 78 84 88 90 95 99 100 97 91 86 78 62 50 49 47 37 26 20 11 18 27 37 32 35 33 31 71 84 84 70 66 68 71 72 69 66 65 58 54 49 57 48 43 47 32 43 58 273 257 249
157 161 156 150 153 159 153 148 148 157 148 144 148 148 140 143 135 150 136 130 133 156 22 36 138 138 82 81 162 119 95 46 47 16 26 71 80 86 98 98 96 96 97 91 85 79 71 61 54 48 38 33 26 19 19 23 27 32 30 34 33 60 73 79 74 74 71 66 66 64 63 59 55 54 60 65 67 63 55 46 36 354 4 243 260
149 150 157 152 140 141 152 150 149 155 143 145 159 166 162 159 158 156 174 152 165 129 332 47 101 17 137 116 75 97 188 168 127 34 357 39 51 77 83 91 95 99 100 94 77 62 63 59 54 47 41 37 36 32 28 27 28 30 28 33 38 51 70 72 79 80 74 73 70 69 62 58 56 54 52 53 55 56 55 57 58 57 53 45 34
152 149 144 139 142 144 146 144 146 150 154 153 156 148 156 159 177 166 165 207 152 136 127 30 63 62 86 129 163 168 160 185 94 101 29 53 50 64 70 75 82 99 104 93 81 69 55 68 54 55 47 45 40 41 35 31 37 32 32 32 37 45 43 60 79 77 77 73 70 67 64 59 55 52 51 51 53 53 52 51 50 48 47 50 56
139 145 144 140 134 144 147 146 145 147 151 149 159 173 175 175 159 164 174 142 140 149 157 154 68 24 41 85 148 151 144 137 130 125 95 8 32 33 47 65 92 105 90 73 76 76 62 70 64 57 49 41 42 45 47 40 43 45 48 42 43 47 48 42 36 63 71 68 66 63 62 61 57 53 52 52 51 50 48 48 47 47 44 42 44
135 136 144 141 139 135 137 141 147 156 155 161 165 165 151 139 157 156 145 163 167 157 157 167 165 184 36 76 86 95 89 77 114 139 127 128 83 60 55 50 56 52 63 70 60 52 53 46 62 62 55 46 47 51 48 49 40 36 36 34 39 45 49 44 43 38 54 67 67 66 63 61 59 57 54 51 49 49 47 46 45 45 44 43 43
134 144 138 142 144 142 143 144 154 163 158 152 153 165 171 164 154 152 161 150 144 123 144 176 159 165 123 61 79 77 75 73 104 96 133 131 113 139 125 83 68 55 51 52 45 40 43 48 64 61 58 47 41 50 51 52 48 36 44 39 41 37 42 47 42 41 47 62 66 68 68 64 61 57 56 54 52 49 47 45 42 42 45 45 46
132 140 145 155 146 147 148 154 160 168 167 163 152 163 174 172 176 173 159 151 119 145 161 169 165 146 148 142 115 101 78 83 73 108 67 56 149 162 155 144 126 48 19 24 33 30 42 41 50 45 45 43 35 46 53 52 51 50 44 44 47 48 45 49 43 40 40 56 69 70 70 70 67 64 60 57 56 53 50 48 45 43 43 45 46
138 145 164 159 154 161 155 159 163 168 167 168 170 173 178 174 167 156 162 160 164 145 117 129 144 141 146 157 157 171 171 166 165 154 134 127 106 127 119 92 120 127 352 352 44 49 59 56 54 45 32 45 28 41 47 50 52 52 49 49 50 53 55 52 49 44 39 39 64 71 70 70 69 69 67 64 61 57 54 52 48 45 43 43 45
145 154 170 176 163 172 169 164 171 170 177 182 179 174 163 150 154 162 166 161 150 152 149 147 170 167 172 185 184 155 115 136 154 145 142 149 138 141 138 119 79 27 322 313 70 63 46 51 40 41 12 19 38 42 42 46 47 55 52 51 48 53 59 61 57 54 48 43 42 61 70 69 68 68 68 66 64 61 60 57 51 46 42 41 43
169 155 175 170 166 163 171 175 182 183 170 171 176 165 154 151 156 158 162 169 174 167 169 184 178 178 185 177 150 151 134 119 122 121 96 122 130 127 102 92 130 113 4 23 353 336 55 84 89 48 3 355 6 49 59 62 52 55 68 55 57 58 57 60 62 61 60 54 50 41 49 63 65 65 64 62 58 57 56 54 52 49 45 39 37
173 179 183 160 154 158 159 165 171 163 158 163 164 166 159 159 159 163 177 170 152 169 175 176 183 157 134 148 169 150 143 134 134 129 133 126 137 140 137 59 68 104 356 10 359 77 315 354 157 126 210 297 294 345 109 101 92 77 73 73 63 65 65 64 63 61 64 61 56 49 41 44 53 56 57 58 59 57 55 49 39 42 50 47 39
169 174 159 140 131 124 135 130 132 142 144 146 153 155 159 151 166 168 151 154 160 158 167 166 171 165 159 163 153 136 146 147 146 149 151 152 147 151 138 125 71 51 39 331 341 256 236 305 215 194 200 236 246 244 188 178 156 108 98 79 77 71 71 66 72 77 76 74 68 61 54 47 43 44 48 51 50 55 54 53 51 42 32 38 42
156 134 152 141 143 126 110 110 117 122 133 142 148 153 161 157 157 159 161 161 157 167 173 172 172 170 162 140 143 158 150 154 163 155 160 156 146 152 149 143 142 160 313 209 316 271 211 162 279 232 202 209 232 212 235 211 105 205 136 120 111 96 74 74 69 73 76 77 75 73 65 51 40 32 31 30 41 36 42 38 35 41 40 32 31
145 147 129 124 141 129 116 108 101 111 114 127 137 146 153 154 152 153 152 168 159 177 161 175 179 162 150 166 169 153 164 158 145 139 139 141 156 159 164 161 161 140 158 188 225 220 244 203 167 215 190 194 215 164 221 280 292 229 164 172 142 93 62 84 82 72 69 62 63 68 63 53 42 26 21 17 18 20 22 21 22 26 29 22 21
141 145 125 115 104 106 109 102 100 97 113 111 115 121 121 106 120 115 131 144 134 117 172 166 166 158 151 163 157 157 156 153 152 148 148 155 157 168 161 142 149 148 160 164 219 206 217 220 210 170 172 214 190 197 182 190 207 204 231 259 269 218 281 84 109 118 92 79 64 58 52 57 50 27 7 359 352 343 329 325 349 346 348 29 19
128 127 113 102 104 96 106 108 100 103 98 109 113 106 109 112 107 114 117 130 133 133 148 154 155 152 159 176 183 157 142 154 137 147 150 156 162 151 147 148 168 152 151 135 150 231 179 189 228 222 178 189 186 196 197 184 186 184 197 229 251 266 274 232 228 133 125 89 77 58 39 45 20 1 359 4 350 340 326 316 310 283 299 2 18
119 121 116 118 120 116 109 113 109 108 106 98 107 110 99 100 121 117 117 120 121 133 125 117 131 138 152 171 182 160 150 139 146 162 168 167 157 159 155 152 136 128 140 144 152 186 200 201 205 206 184 166 178 183 231 205 183 198 187 204 234 243 259 243 244 201 200 294 337 49 51 17 348 333 10 359 343 335 326 320 316 310 293 229 232
132 118 117 122 125 129 130 128 128 131 127 120 115 111 103 100 84 108 112 114 119 118 119 102 99 119 136 163 171 157 155 158 167 165 164 161 155 143 136 149 149 157 146 122 132 116 80 8 246 268 119 141 176 206 209 220 236 227 205 217 209 224 241 254 243 225 91 259 330 352 18 339 339 359 2 355 348 340 335 331 328 331 324 255 230
130 127 123 125 125 131 129 120 109 111 120 123 129 125 121 110 101 106 120 120 116 117 118 111 99 108 120 133 152 156 170 158 159 171 162 155 159 154 167 170 173 172 179 108 121 137 188 243 256 339 133 192 209 168 199 198 226 176 210 219 212 222 238 251 283 24 43 201 208 206 280 359 5 14 23 20 14 1 350 342 341 351 352 291 224
107 124 131 126 129 125 118 120 117 111 121 124 122 124 124 126 122 114 124 133 142 141 126 125 122 121 115 124 150 145 150 154 170 169 164 168 164 173 179 178 178 180 191 153 127 134 170 208 201 191 193 176 204 188 201 202 193 172 197 205 209 201 207 178 175 235 237 225 178 172 37 34 42 39 31 26 17 8 2 0 7 20 27 33 208
118 104 117 127 125 127 125 122 128 131 125 126 110 117 135 134 131 130 123 112 93 85 124 139 133 133 139 134 140 140 148 155 164 162 171 163 176 184 180 188 181 185 189 184 151 135 180 165 218 196 196 179 221 144 107 142 150 135 218 226 167 161 144 157 176 211 201 132 107 93 73 59 51 40 37 36 35 33 35 38 42 44 42 44 53
117 115 102 120 122 131 140 149 148 148 158 149 132 121 115 116 124 129 126 115 109 106 114 130 124 121 125 130 138 133 140 142 155 160 169 177 181 178 194 187 195 182 178 194 185 133 142 186 201 206 171 203 183 158 159 154 111 83 56 57 60 101 94 61 115 110 103 96 81 64 62 66 59 54 53 56 57 57 54 53 52 50 48 45 43
113 115 137 126 137 131 129 143 145 153 162 160 156 154 137 120 110 114 118 124 131 129 130 137 127 138 137 137 145 143 148 158 170 164 166 178 171 190 196 195 184 165 178 187 172 161 167 192 177 165 200 179 171 211 202 175 154 127 78 85 75 49 104 105 66 61 44 64 61 62 64 76 80 70 70 71 67 61 60 59 58 56 54 52 48
134 141 140 129 111 124 139 137 137 157 162 155 146 136 133 134 137 132 128 123 136 144 173 162 148 147 144 147 159 164 168 170 163 172 172 173 182 192 193 185 169 165 173 183 173 172 179 169 190 199 187 186 171 188 159 173 156 164 157 142 99 60 49 123 111 63 50 74 67 73 78 86 95 90 81 68 65 67 66 63 61 59 57 54 51
135 159 165 163 141 130 145 134 141 144 136 132 133 133 135 145 150 149 148 150 143 146 153 176 152 174 175 171 175 186 183 180 183 181 173 179 171 177 174 158 162 164 175 169 169 172 173 188 195 196 212 178 157 32 83 129 153 201 198 161 165 161 156 35 40 125 79 88 93 87 88 99 100 100 85 74 58 54 60 63 59 62 61 58 55
71 109 106 116 140 148 133 134 137 135 141 160 167 165 157 160 159 160 162 156 159 162 160 209 267 131 172 320 313 321 281 213 193 194 206 177 164 168 180 166 164 169 159 168 173 169 181 187 209 338 169 213 214 164 173 181 198 199 169 137 125 123 137 111 69 40 62 118 107 96 95 88 97 64 62 65 51 52 55 56 59 57 55 51 45
83 84 84 97 126 207 237 216 151 159 177 180 174 172 168 164 168 161 152 162 165 168 178 189 215 199 173 172 197 209 225 225 206 214 214 215 213 198 171 167 166 160 166 167 177 184 174 189 207 185 196 225 212 202 202 212 136 91 127 154 140 154 116 91 33 294 20 154 130 97 80 44 105 101 91 95 58 47 70 62 56 64 58 51 44
43 81 99 82 4 355 342 322 288 281 302 353 12 148 163 144 151 168 178 175 164 164 176 192 228 218 196 179 192 207 196 197 195 199 212 233 236 215 176 185 179 166 160 172 189 180 183 203 188 178 208 223 229 190 214 183 175 181 179 173 140 150 172 162 183 224 252 170 126 121 123 51 184 132 130 125 116 100 69 71 46 69 63 46 27
28 53 51 42 28 15 25 36 29 7 13 41 65 60 49 33 33 61 43 75 203 186 187 195 211 212 224 216 204 193 197 199 189 185 201 212 215 207 177 180 189 201 185 173 172 180 190 185 190 214 201 220 229 176 199 168 183 168 165 159 167 174 171 187 174 177 133 181 149 134 137 115 153 132 141 167 153 122 59 348 337 29 11 340 345
34 54 52 60 50 38 57 67 42 21 25 15 17 21 28 29 77 122 119 105 132 254 252 242 227 221 219 227 245 222 212 200 191 188 185 188 200 198 189 193 204 206 217 236 228 187 175 187 199 215 209 200 205 227 196 190 158 159 148 168 181 181 175 172 168 140 136 354 125 130 158 146 175 165 149 195 195 200 214 245 296 326 319 309 297
41 39 38 50 48 45 37 43 52 46 41 17 30 31 36 41 40 303 297 268 232 215 215 217 230 239 232 226 233 242 226 208 200 197 196 191 175 168 185 197 209 201 152 200 229 224 192 199 196 218 220 174 212 221 196 161 151 164 167 185 163 167 172 160 130 111 65 209 202 135 126 181 328 158 128 156 207 213 222 237 270 291 296 294 300
36 36 29 37 38 45 41 44 61 52 33 24 35 35 34 30 26 58 84 87 310 310 308 283 258 249 250 247 256 267 260 220 220 204 199 201 181 188 193 206 198 187 182 177 143 64 42 351 263 251 256 208 239 222 151 184 200 185 185 174 165 135 109 104 86 70 92 52 104 129 213 164 267 166 219 236 197 263 251 240 261 275 281 285 321
29 35 32 34 34 36 38 49 65 54 35 32 38 38 33 25 28 38 27 24 2 328 300 283 282 280 275 257 253 263 275 278 263 237 234 227 187 202 212 203 205 208 154 59 87 155 165 177 207 255 266 247 233 211 185 183 128 111 86 77 86 111 121 121 132 315 81 33 49 132 147 193 105 202 239 233 236 267 245 221 248 261 278 305 334
28 30 31 34 30 36 37 39 53 55 41 29 36 37 33 26 30 28 23 16 9 343 311 304 287 268 254 241 239 251 258 262 257 201 192 219 239 231 224 219 226 208 154 47 46 120 182 181 197 223 253 257 225 182 159 151 151 140 119 114 149 155 138 138 134 172 188 319 343 46 113 178 171 196 286 262 262 276 274 219 221 271 295 325 331
30 21 17 33 36 37 39 39 36 48 35 26 33 34 33 28 32 29 13 11 352 344 325 319 308 291 264 253 239 235 245 252 251 215 178 173 199 205 222 241 253 262 242 102 78 6 34 90 90 84 89 135 143 144 153 156 158 154 139 167 162 134 131 151 169 185 140 283 229 150 116 203 99 139 271 286 304 222 252 264 250 296 309 322 325
31 20 22 29 29 31 31 32 33 38 26 19 26 32 35 29 27 22 17 20 0 345 340 325 321 311 304 295 268 254 249 256 255 234 189 184 195 200 202 193 205 221 218 173 175 187 158 71 64 103 79 89 111 128 147 154 150 116 130 144 140 157 168 186 138 118 126 258 204 166 178 205 159 187 193 293 266 249 260 304 284 291 302 311 319